Location: Caltech
(34.1382°N, 118.1253°W)
Time: 08:10:01
(UTC-07:00)

Cosmos 2360 Rocket - Visible Passes

Search period start: 30 July 2014 00:00
Search period end: 09 August 2014 00:00
Orbit: 834 x 846 km, 71.0° (Epoch: 29 July)

Date Brightness Start Highest point End Pass type
(mag) Time Alt. Az. Time Alt. Az. Time Alt. Az.
30 Jul 2.2 21:12:19 10° NNW 21:17:57 68° ENE 21:21:26 24° SE visible
30 Jul 4.6 22:58:53 10° WNW 23:01:15 13° W 23:03:14 11° WSW visible
31 Jul 2.3 20:56:45 10° NNW 21:02:23 63° ENE 21:06:38 18° SE visible
31 Jul 4.6 22:42:58 10° WNW 22:45:44 14° W 22:48:26 10° SW visible
01 Aug 2.3 20:41:12 10° NNW 20:46:48 59° ENE 20:51:54 12° SE visible
01 Aug 4.6 22:27:07 10° WNW 22:30:11 15° W 22:33:16 10° SW visible
02 Aug 2.4 20:25:39 10° NNW 20:31:13 55° ENE 20:36:44 10° SE visible
02 Aug 4.6 22:11:17 10° WNW 22:14:39 16° W 22:18:01 10° SW visible
03 Aug 2.5 20:10:07 10° N 20:15:38 51° ENE 20:21:07 10° SE visible
03 Aug 4.5 21:55:30 10° WNW 21:59:07 18° W 22:02:44 10° SW visible
04 Aug 4.5 21:39:45 10° WNW 21:43:35 19° W 21:47:25 10° SW visible
05 Aug 4.5 21:24:00 10° NW 21:28:02 20° W 21:32:04 10° SSW visible
06 Aug 4.4 21:08:17 10° NW 21:12:30 22° W 21:16:43 10° SSW visible
07 Aug 4.4 20:52:34 10° NW 20:56:57 24° W 21:01:20 10° SSW visible
08 Aug 4.3 20:36:52 10° NW 20:41:24 25° WSW 20:45:56 10° SSW visible
